Flag for Canada Weather past 2 weeks in Cape Dorset, Nunavut Territory, Canada

Now
30 °F

Light snow. Mostly cloudy.


Feels Like: 17 °F
Forecast: 28 / 33 °F
Wind: 22 mph from West

Location: Cape Dorset

Current Time: Sep 22, 2014 at 12:23:19 AM

Latest Report: Sep 22, 2014 at 12:03 AM


Visibility: 2 mi

Pressure: 29.33 "Hg

Humidity: 93%

Dew point: 28 °F

Location of Cape DorsetLocation

Historic Weather in Cape Dorset — Graph

°F

Cape Dorset temperature yesterday

Maximum temperature yesterday: 32 °F (at 9:02 PM)
Minimum temperature yesterday: 28 °F (at 5:00 AM)
Average temperature yesterday: 30 °F

Past Weeks' High & Low Weather Summary

 TemperatureHumidityPressure
High45 °F (Sep 8, 3:00 PM)100% (Sep 7, 2:57 PM)29.88 "Hg (Sep 7, 2:57 PM)
Low27 °F (Sep 18, 9:00 PM)60% (Sep 14, 10:00 AM)29.14 "Hg (Sep 10, 1:00 AM)
Average32 °F83%29.63 "Hg
* Reported Sep 6 11:00 PM — Sep 21 11:00 PM, Cape Dorset, Weather by CustomWeather, © 2014

Note: Actual official high and low records may vary slightly from our data, if they occured in-between our weather recording intervals... More about our weather records

Advertising

Cape Dorset weather history for previous 24 hours

 ConditionsComfort  
Time TempWeatherWind HumidityBarometerVisibility
11:00 PM
Sep 21
32 °FLight freezing rain. Mostly cloudy.17 mphN/A29.33 "Hg4 mi
10:56 PM32 °FLight freezing rain. Mostly cloudy.16 mphN/A29.34 "Hg3 mi
10:00 PM32 °FLight snow. Mostly cloudy.25 mph100%29.37 "Hg3 mi
9:02 PM32 °FLight snow. Low clouds.18 mphN/A29.41 "Hg3 mi
8:00 PM30 °FLight snow. Mostly cloudy.18 mph100%29.44 "Hg2 mi
7:00 PM30 °FLight snow. Mostly cloudy.18 mph86%29.48 "Hg9 mi
6:53 PM30 °FLight snow. Mostly cloudy.17 mph86%29.49 "Hg9 mi
6:00 PM30 °FMore clouds than sun.12 mph80%29.53 "Hg9 mi
5:59 PM30 °FMore clouds than sun.12 mph80%29.53 "Hg9 mi
5:00 PM30 °FOvercast.8 mph75%29.57 "Hg9 mi
4:00 PM30 °FOvercast.10 mph75%29.59 "Hg9 mi
3:00 PM30 °FPartly sunny.7 mph75%29.61 "Hg9 mi
2:00 PM30 °FLight snow. More clouds than sun.8 mph75%29.64 "Hg9 mi
1:04 PM30 °FLight snow. Overcast.10 mph75%29.66 "Hg9 mi
12:00 PM28 °FOvercast.10 mph86%29.69 "Hg6 mi
11:01 AM30 °FOvercast.6 mph69%29.70 "Hg9 mi
11:00 AM30 °FOvercast.7 mph69%29.70 "Hg9 mi
10:00 AM30 °FOvercast.3 mph69%29.72 "Hg9 mi
9:59 AM30 °FOvercast.3 mph69%29.72 "Hg9 mi
9:00 AM30 °FOvercast.6 mph80%29.72 "Hg9 mi
8:00 AM30 °FOvercast.5 mph80%29.75 "Hg9 mi
7:00 AM28 °FOvercast.5 mph86%29.75 "Hg9 mi
6:00 AM28 °FOvercast.7 mph86%29.75 "Hg9 mi
5:00 AM28 °FOvercast.8 mph93%29.76 "Hg9 mi
4:00 AM30 °FOvercast.6 mph80%29.76 "Hg9 mi
3:00 AM30 °FOvercast.7 mph75%29.76 "Hg9 mi
2:00 AM30 °FOvercast.8 mph75%29.76 "Hg9 mi
1:00 AM30 °FOvercast.8 mph75%29.76 "Hg9 mi
12:00 AM30 °FOvercast.8 mph80%29.75 "Hg9 mi
Weather by CustomWeather, © 2014

See weather overviewHow to use our weather pages